Weather History for Kankakee, IL

Change the Weather History Date:

Thursday, March 13, 2014

  Actual Average Record
Temperature  
Mean Temperature 24 °F -  
Max Temperature 36 °F 47 °F 79 °F (1990)
Min Temperature 12 °F 27 °F 12 °F (1984)
Degree Days  
Heating Degree Days 41    
Moisture  
Dew Point 22 °F    
Average Humidity 85    
Maximum Humidity 94    
Minimum Humidity 68    
Precipitation  
Precipitation 0.03 in - - ()
Sea Level Pressure  
Sea Level Pressure 30.06 in    
Wind  
Wind Speed 6 mph (South)    
Max Wind Speed 20 mph    
Max Gust Speed 26 mph    
Visibility 10 miles    
Events      
Averages and records for this station are not official NWS values.
T = Trace of Precipitation, MM = Missing Value Source: NWS Daily Summary

Daily Weather History Graph

Daily Weather History Graph

Search for Another Location

Airport:

Trip Planner

Search our weather history database for the weather conditions in past years. The results will help you decide how hot, cold, wet, or windy it might be!

Date:

Astronomy

Mar. 13, 2014 Rise Set
Actual Time 7:06 AM CDT 6:55 PM CDT
Civil Twilight 6:38 AM CDT 7:23 PM CDT
Nautical Twilight 6:07 AM CDT 7:55 PM CDT
Astronomical Twilight 5:34 AM CDT 8:27 PM CDT
Moon 4:20 PM CDT (3/13) 5:14 AM CDT (3/13)
Length of Visible Light 12h 44m
Length of Day
11h 49m
Waxing Gibbous, 91% of the Moon is Illuminated
Mar 13
Waxing Gibbous
Mar 16
Full
Mar 23
Last Quarter
Mar 30
New
Apr 7
First Quarter

Hourly Weather History & Observations

Time (CDT) Temp. Windchill Dew Point Humidity Pressure Visibility Wind Dir Wind Speed Gust Speed Precip Events Conditions
12:15 AM 18.3 °F - 15.6 °F 89% 30.12 in 10.0 mi Calm Calm - N/A   Overcast
12:35 AM 17.4 °F - 14.9 °F 90% 30.12 in 10.0 mi Calm Calm - N/A   Mostly Cloudy
12:55 AM 16.9 °F - 14.9 °F 92% 30.12 in 10.0 mi Calm Calm - N/A   Mostly Cloudy
1:15 AM 15.1 °F 9.4 °F 12.9 °F 91% 30.12 in 10.0 mi West 3.5 mph - N/A   Scattered Clouds
1:35 AM 16.5 °F 11.0 °F 14.2 °F 90% 30.12 in 10.0 mi West 3.5 mph - N/A   Scattered Clouds
1:55 AM 16.0 °F 8.8 °F 13.3 °F 89% 30.13 in 10.0 mi West 4.6 mph - N/A   Scattered Clouds
2:15 AM 15.8 °F - 13.1 °F 89% 30.13 in 10.0 mi Calm Calm - N/A   Scattered Clouds
2:35 AM 15.8 °F - 13.1 °F 89% 30.13 in 10.0 mi Calm Calm - N/A   Mostly Cloudy
2:55 AM 15.6 °F - 13.1 °F 90% 30.12 in 10.0 mi Calm Calm - N/A   Mostly Cloudy
3:15 AM 14.4 °F - 12.4 °F 92% 30.12 in 10.0 mi Calm Calm - N/A   Overcast
3:35 AM 14.9 °F - 13.5 °F 94% 30.12 in 10.0 mi Calm Calm - N/A   Overcast
3:55 AM 15.6 °F - 13.6 °F 92% 30.12 in 10.0 mi Calm Calm - N/A   Overcast
4:15 AM 15.8 °F - 13.6 °F 91% 30.12 in 10.0 mi Calm Calm - N/A   Mostly Cloudy
4:35 AM 15.6 °F - 13.6 °F 92% 30.12 in 10.0 mi Calm Calm - N/A   Scattered Clouds
4:55 AM 14.7 °F - 12.9 °F 93% 30.13 in 7.0 mi Calm Calm - N/A   Clear
5:15 AM 14.2 °F - 12.2 °F 92% 30.13 in 10.0 mi Calm Calm - N/A   Clear
5:35 AM 14.0 °F - 12.0 °F 92% 30.14 in 10.0 mi Calm Calm - N/A   Clear
5:55 AM 14.0 °F - 12.2 °F 93% 30.14 in 10.0 mi Calm Calm - N/A   Clear
6:15 AM 13.6 °F - 11.5 °F 91% 30.14 in 10.0 mi Calm Calm - N/A   Scattered Clouds
6:35 AM 12.9 °F - 10.4 °F 90% 30.14 in 10.0 mi Calm Calm - N/A   Clear
6:55 AM 13.1 °F - 10.6 °F 90% 30.14 in 10.0 mi Calm Calm - N/A   Clear
7:15 AM 12.9 °F 6.9 °F 10.4 °F 90% 30.14 in 10.0 mi SE 3.5 mph - N/A   Clear
7:35 AM 13.6 °F - 11.3 °F 90% 30.14 in 10.0 mi Calm Calm - N/A   Clear
7:55 AM 14.4 °F 8.6 °F 12.2 °F 91% 30.15 in 10.0 mi South 3.5 mph - N/A   Clear
8:15 AM 17.4 °F 10.4 °F 14.2 °F 87% 30.16 in 10.0 mi South 4.6 mph - N/A   Clear
8:35 AM 19.0 °F 11.1 °F 14.0 °F 81% 30.17 in 10.0 mi South 5.8 mph - N/A   Clear
8:55 AM 20.7 °F 11.9 °F 14.2 °F 76% 30.17 in 10.0 mi South 6.9 mph - N/A   Clear
9:15 AM 21.9 °F 12.5 °F 13.8 °F 71% 30.17 in 10.0 mi South 8.1 mph - N/A   Clear
9:35 AM 23.0 °F 13.1 °F 14.5 °F 70% 30.17 in 10.0 mi South 9.2 mph - N/A   Clear
9:55 AM 23.9 °F 13.5 °F 14.7 °F 68% 30.16 in 10.0 mi South 10.4 mph - N/A   Clear
10:15 AM 25.5 °F 16.2 °F 17.1 °F 70% 30.16 in 10.0 mi South 9.2 mph - N/A   Scattered Clouds
10:35 AM 26.2 °F 16.4 °F 18.5 °F 73% 30.16 in 10.0 mi South 10.4 mph - N/A   Clear
10:55 AM 27.0 °F 16.7 °F 19.2 °F 73% 30.15 in 10.0 mi South 11.5 mph - N/A   Clear
11:15 AM 27.5 °F 16.3 °F 20.5 °F 75% 30.15 in 10.0 mi South 13.8 mph - N/A   Mostly Cloudy
11:35 AM 28.4 °F 17.0 °F 21.9 °F 77% 30.15 in 10.0 mi South 15.0 mph 18.4 mph N/A   Overcast
11:55 AM 28.4 °F 16.6 °F 22.6 °F 79% 30.14 in 10.0 mi South 16.1 mph 19.6 mph N/A   Overcast
12:15 PM 28.2 °F 17.2 °F 23.4 °F 82% 30.13 in 10.0 mi South 13.8 mph - N/A   Overcast
12:35 PM 29.1 °F 17.5 °F 24.1 °F 81% 30.12 in 10.0 mi South 16.1 mph - N/A   Overcast
12:55 PM 29.7 °F 18.2 °F 24.6 °F 81% 30.11 in 10.0 mi South 16.1 mph - N/A   Overcast
1:15 PM 30.0 °F 18.7 °F 24.4 °F 80% 30.10 in 10.0 mi South 16.1 mph - N/A   Overcast
1:35 PM 30.9 °F 19.8 °F 25.2 °F 79% 30.09 in 10.0 mi South 16.1 mph 19.6 mph N/A   Overcast
1:55 PM 31.1 °F 20.1 °F 25.3 °F 79% 30.08 in 10.0 mi South 16.1 mph 24.2 mph N/A   Overcast
2:15 PM 31.6 °F 20.4 °F 26.1 °F 80% 30.06 in 10.0 mi South 17.3 mph - N/A   Overcast
2:35 PM 31.8 °F 21.8 °F 26.4 °F 80% 30.04 in 10.0 mi South 13.8 mph 24.2 mph N/A   Overcast
2:55 PM 32.0 °F 20.5 °F 26.6 °F 80% 30.04 in 10.0 mi South 18.4 mph 23.0 mph N/A   Overcast
3:15 PM 32.2 °F 21.1 °F 27.3 °F 82% 30.03 in 10.0 mi South 17.3 mph 21.9 mph N/A   Overcast
3:35 PM 32.9 °F 21.3 °F 28.0 °F 82% 30.02 in 10.0 mi South 19.6 mph 25.3 mph N/A   Overcast
3:55 PM 33.3 °F 22.5 °F 27.9 °F 81% 30.02 in 10.0 mi South 17.3 mph 23.0 mph N/A   Mostly Cloudy
4:15 PM 33.8 °F 24.8 °F 28.4 °F 81% 30.01 in 10.0 mi South 12.7 mph - N/A   Overcast
4:35 PM 33.8 °F 22.8 °F 28.9 °F 82% 30.00 in 10.0 mi South 18.4 mph 21.9 mph N/A   Overcast
4:55 PM 34.0 °F 23.8 °F 29.7 °F 84% 29.99 in 10.0 mi South 16.1 mph 21.9 mph N/A   Overcast
5:15 PM 34.2 °F 24.8 °F 29.8 °F 84% 29.99 in 10.0 mi South 13.8 mph - N/A   Mostly Cloudy
5:35 PM 35.1 °F 26.9 °F 30.2 °F 82% 29.99 in 10.0 mi South 11.5 mph - 0.01 in   Scattered Clouds
5:55 PM 35.1 °F 27.4 °F 30.7 °F 84% 29.99 in 10.0 mi South 10.4 mph - 0.02 in   Clear
6:15 PM 35.1 °F 27.4 °F 31.1 °F 85% 29.99 in 10.0 mi South 10.4 mph - N/A   Clear
6:35 PM 35.2 °F 27.6 °F 31.5 °F 86% 29.97 in 10.0 mi South 10.4 mph - N/A   Clear
6:55 PM 35.1 °F 26.9 °F 31.8 °F 88% 29.97 in 10.0 mi South 11.5 mph - N/A   Clear
7:15 PM 35.1 °F 27.4 °F 32.0 °F 89% 29.96 in 10.0 mi South 10.4 mph - N/A   Clear
7:35 PM 35.6 °F 27.1 °F 32.0 °F 87% 29.95 in 10.0 mi South 12.7 mph 17.3 mph N/A   Clear
7:55 PM 35.8 °F 26.9 °F 32.2 °F 87% 29.95 in 10.0 mi South 13.8 mph - 0.01 in   Clear
8:15 PM 35.8 °F 26.9 °F 32.2 °F 87% 29.95 in 10.0 mi South 13.8 mph - N/A   Clear
8:35 PM 36.0 °F 27.1 °F 32.2 °F 86% 29.94 in 10.0 mi South 13.8 mph - N/A   Clear
8:55 PM 36.1 °F 26.5 °F 32.2 °F 86% 29.94 in 10.0 mi South 16.1 mph - N/A   Clear
9:15 PM 36.3 °F 26.1 °F 32.0 °F 84% 29.93 in 10.0 mi South 18.4 mph 23.0 mph N/A   Clear
9:35 PM 36.1 °F 25.9 °F 32.0 °F 85% 29.93 in 10.0 mi South 18.4 mph 23.0 mph N/A   Clear
9:55 PM 35.8 °F 25.1 °F 32.0 °F 86% 29.92 in 10.0 mi South 19.6 mph 26.5 mph N/A   Clear
10:15 PM 35.6 °F 25.9 °F 32.0 °F 87% 29.92 in 10.0 mi South 16.1 mph 21.9 mph N/A   Clear
10:35 PM 35.6 °F 25.5 °F 32.0 °F 87% 29.92 in 10.0 mi South 17.3 mph - N/A   Clear
10:55 PM 35.6 °F 26.2 °F 31.8 °F 86% 29.91 in 10.0 mi South 15.0 mph 23.0 mph N/A   Clear
11:15 PM 35.6 °F 25.5 °F 32.0 °F 87% 29.91 in 10.0 mi South 17.3 mph - N/A   Clear
11:35 PM 35.6 °F 25.9 °F 31.8 °F 86% 29.90 in 10.0 mi South 16.1 mph - N/A   Clear
11:55 PM 35.6 °F 25.5 °F 31.8 °F 86% 29.89 in 10.0 mi South 17.3 mph 21.9 mph N/A   Clear